EW1336 Weather Reports


time (UTC)temp
C
wind
direction
speed
KPH
gust
KPH
rain 1hr
cm
rain 24hr
cm
rain mn
cm
humidity
%
barometer
mb
20260502183059 12 284 0.0 3.2 0.00 0.00 0.00 41 1010.1
20260502181555 12 229 0.0 3.2 0.00 0.00 0.00 44 1010.2
20260502163040 10 214 0.0 1.6 0.00 0.00 0.00 48 1010.6
20260502161536 10 222 0.0 1.6 0.00 0.00 0.00 48 1010.4
20260502151520 7 47 0.0 0.0 0.00 0.00 0.00 68 1010.5
20260502123106 3 212 0.0 0.0 0.00 0.00 0.00 73 1010.2
20260502121557 3 224 0.0 0.0 0.00 0.00 0.00 68 1010.2
20260502114553 3 253 0.0 0.0 0.00 0.00 0.00 64 1010.4
20260502113053 3 214 0.0 1.6 0.00 0.00 0.00 63 1010.5
20260502111551 3 224 0.0 0.0 0.00 0.00 0.00 63 1010.4
20260502110057 3 214 0.0 0.0 0.00 0.00 0.00 62 1010.4
20260502104550 4 214 0.0 0.0 0.00 0.00 0.00 61 1010.5
20260502103054 4 214 0.0 0.0 0.00 0.00 0.00 59 1010.4
20260502101603 5 211 0.0 1.6 0.00 0.00 0.00 57 1010.4
20260502071521 6 166 0.0 1.6 0.00 0.00 0.00 44 1011.7
20260502070023 5 191 0.0 0.0 0.00 0.00 0.00 49 1011.6
20260502064515 6 212 0.0 0.0 0.00 0.00 0.00 50 1011.6
20260502063010 6 207 0.0 0.0 0.00 0.00 0.00 49 1011.6
20260502061504 6 176 0.0 0.0 0.00 0.00 0.00 50 1011.5
20260502060101 6 181 0.0 1.6 0.00 0.00 0.00 55 1011.7
20260502054602 6 158 0.0 0.0 0.00 0.00 0.00 59 1011.8
20260502053110 6 158 0.0 1.6 0.00 0.00 0.00 58 1011.7
20260502051548 6 243 0.0 0.0 0.00 0.00 0.00 59 1011.9
20260502050043 6 222 0.0 0.0 0.00 0.00 0.00 57 1011.9
20260502044543 6 215 0.0 0.0 0.00 0.00 0.00 55 1011.9
20260502043042 6 215 0.0 0.0 0.00 0.00 0.00 53 1011.9
20260502041541 7 214 0.0 0.0 0.00 0.00 0.00 51 1011.8
20260502040039 7 215 0.0 0.0 0.00 0.00 0.00 48 1011.7
20260502034525 7 215 0.0 0.0 0.00 0.00 0.00 47 1011.4
20260502033021 8 215 0.0 0.0 0.00 0.00 0.00 45 1011.2
20260502031517 9 253 0.0 0.0 0.00 0.00 0.00 44 1011.0
20260502030011 10 257 0.0 0.0 0.00 0.00 0.00 43 1010.8
20260502024523 11 257 0.0 0.0 0.00 0.00 0.00 40 1010.9
20260502023003 12 257 0.0 0.0 0.00 0.00 0.00 37 1011.0
20260502021600 12 257 0.0 0.0 0.00 0.00 0.00 35 1010.9
20260502020055 12 257 0.0 0.0 0.00 0.00 0.00 34 1010.9
20260502014550 13 257 0.0 0.0 0.00 0.00 0.00 29 1011.0
20260502013046 13 257 0.0 0.0 0.00 0.00 0.00 31 1011.1
20260502011548 13 266 0.0 1.6 0.00 0.00 0.00 28 1011.1
20260502010036 14 270 0.0 1.6 0.00 0.00 0.00 23 1011.2
20260502004532 14 219 0.0 0.0 0.00 0.00 0.00 22 1011.3
20260502003029 15 245 0.0 1.6 0.00 0.00 0.00 19 1011.3
20260502001524 15 271 0.0 3.2 0.00 0.00 0.00 12 1011.4
20260502000020 16 283 0.0 3.2 0.00 0.00 0.00 13 1011.4
20260501234521 16 194 0.0 1.6 0.00 0.00 0.00 17 1011.5
20260501233018 16 243 0.0 4.8 0.00 0.00 0.00 21 1011.6
20260501231520 16 269 0.0 3.2 0.00 0.00 0.00 23 1011.6
20260501230012 16 240 0.0 4.8 0.00 0.00 0.00 21 1011.9
20260501224513 16 266 0.0 8.0 0.00 0.00 0.00 23 1012.0
20260501223009 16 226 0.0 3.2 0.00 0.00 0.00 24 1012.3
20260501221507 16 252 0.0 3.2 0.00 0.00 0.00 25 1012.4
20260501220004 16 240 0.0 3.2 0.00 0.00 0.00 26 1012.6
20260501214501 15 274 0.0 6.4 0.00 0.00 0.00 25 1012.8
20260501213113 15 274 0.0 6.4 0.00 0.00 0.00 25 1012.9
20260501211559 16 255 0.0 4.8 0.00 0.00 0.00 26 1013.1
20260501210058 15 210 0.0 4.8 0.00 0.00 0.00 27 1013.2
20260501204558 15 281 0.0 4.8 0.00 0.00 0.00 27 1013.3
20260501203106 16 264 0.0 6.4 0.00 0.00 0.00 27 1013.3
20260501201554 16 262 0.0 6.4 0.00 0.00 0.00 27 1013.4
20260501200051 15 246 0.0 3.2 0.00 0.00 0.00 27 1013.7
20260501194551 15 295 0.0 6.4 0.00 0.00 0.00 24 1013.8
20260501193047 14 253 0.0 3.2 0.00 0.00 0.00 28 1014.0
20260501191546 13 316 1.6 9.7 0.00 0.00 0.00 28 1014.3
20260501190043 13 233 0.0 4.8 0.00 0.00 0.00 28 1014.6
20260501184600 13 158 1.6 11.3 0.00 0.00 0.00 28 1014.7